Location: Unspecified
(39.0670°S, 0.0000°E)
Time: 11:58:34
(UTC+00:00)

ISS - Pass Details

Date: 22 June 2019
Orbit: 409 x 418 km, 51.6° (Epoch: 20 July)

Event Time Altitude Azimuth Distance (km) Brightness Sun altitude
Rises 19:24:26 0° 291° (WNW) 2,378 1.2 -30.1°
Reaches altitude 10° 19:26:37 10° 283° (WNW) 1,519 0.0 -30.5°
Enters shadow 19:27:20 15° 278° (W) 1,256 -0.6 -30.6°
